Zurück zum Katalog

FENGYUN 1C DEB

AktivSSO
NORAD 29938·DEBRIS·🇨🇳 China

Gestartet May 10, 1999 von Taiyuan Satellite Launch Center

Loading…

Nächste Überflüge (nächste 24 Stunden)

TLE

AktuellSource: Space-Track

Epoche: Sep 14, 2026, 09:41 UTC

1 29938U 99025JL  26257.40390535 -.00000011  00000-0  19106-4 0  9991
2 29938  98.8248 245.7207 0032342 253.6151 270.8928 14.07588198  9327

Verfolge FENGYUN 1C DEB in Echtzeit mit AllMySat

Download on the App Store